Regional Weather Roundup
Issued by NWS Sterling, VA

Home | Current Version | Previous Version | Text Only | Print | Product List | Glossary On
Versions: 1 2 3 4 5 6 7 8 9 10 11 12 13 14 15 16 17 18 19 20 21 22 23 24 25 26 27
000
ASUS41 KLWX 011510
RWRLWX

REGIONAL WEATHER ROUNDUP
NATIONAL WEATHER SERVICE BALTIMORE MD/WASHINGTON DC
1100 AM EDT SUN MAY 01 2016

Note: "FAIR" indicates few or no clouds below 12,000 feet
with no significant weather and/or obstructions to visibility.
 TC=TEMPERATURE CELSIUS

 * =Non NWS site. Station does not report precipitation (e.g. rain,
    snow, etc.), thunder, or fog.

DCZ001-MDZ009-015-VAZ040>042-051-053>054-011600-
WASHINGTON METRO

CITY           SKY/WX    TMP DP  RH WIND       PRES   REMARKS
WASHINGTON NAT RAIN      54  52  93 SE8       30.11F FOG
DULLES         LGT RAIN  53  52  96 S9        30.08F FOG
ANDREWS AFB    RAIN      54  52  94 S8        30.10F
FT BELVOIR     LGT RAIN  54  52  93 VRB3      30.11S
QUANTICO       LGT RAIN  55  53  93 SE7       30.11F FOG
COLLEGE PARK*  CLOUDY    52  50  93 CALM      30.11F
LEESBURG*      DRIZZLE   54  54 100 S10       30.08F
MANASSAS*      CLOUDY    54  54 100 S9        30.09F FOG
GAITHERSBURG*  CLOUDY    54  48  82 SE10      30.13F

$$

MDZ006>007-011-014-011600-
BALTIMORE METRO

CITY           SKY/WX    TMP DP  RH WIND       PRES   REMARKS
BWI AIRPORT    LGT RAIN  52  50  93 SE8       30.11F
MD SCIENCE CTR   N/A     52  50  93 MISG      30.13F
MARTIN STATE   RAIN      52  52 100 E9        30.15F
ANNAPOLIS      CLOUDY    52  51  97 SE14      30.11F
FORT MEADE*    CLOUDY    52  50  93 SE5       30.13F

$$

MDZ012-015-019>023-011600-
MARYLAND EASTERN SHORE

CITY           SKY/WX    TMP DP  RH WIND       PRES   REMARKS
OCEAN CITY     LGT RAIN  52  50  93 SE10      30.15S
SALISBURY      LGT RAIN  53  51  93 SE7       30.14S
CAMBRIDGE*     CLOUDY    52  50  93 E8        30.12F

$$

MDZ017>025-011600-
SOUTHERN MARYLAND

CITY           SKY/WX    TMP DP  RH WIND       PRES   REMARKS
PATUXENT RIVER CLOUDY    54  51  90 SE10      30.10F
ST INIGOES       N/A    N/A N/A N/A MISG        N/A
LEONARDTOWN*   CLOUDY    52  50  93 SE3       30.11F

$$

MDZ003>005-011600-
NORTH CENTRAL MARYLAND

CITY           SKY/WX    TMP DP  RH WIND       PRES   REMARKS
FREDERICK*     LGT RAIN  54  54 100 S6        30.11F
HAGERSTOWN APT CLOUDY    55  51  86 S14       30.04F
WESTMINSTER*   RAIN      52  48  87 SE10      30.08F

$$

MDZ501>502-011600-
WESTERN MARYLAND

CITY           SKY/WX    TMP DP  RH WIND       PRES   REMARKS
OAKLAND*       CLOUDY    55  54  94 SW3       30.02S
CUMBERLAND*    CLOUDY    59  55  88 CALM      30.05S

$$

VAZ025>031-011600-
SHENANDOAH VALLEY

CITY           SKY/WX    TMP DP  RH WIND       PRES   REMARKS
WINCHESTER*    CLOUDY    55  54  94 S8        30.03S
FRONT ROYAL*   CLOUDY    55  55 100 CALM      30.02F
LURAY*         LGT RAIN  55  55 100 W7        30.02F
NEW MARKET*    PTSUNNY   58  55  89 W7        30.01F
STAUNTON*      PTSUNNY   58  58  97 SW6       30.06F
WAYNESBORO*    FAIR      58  55  91 MISG      30.04F

$$

WVZ021-048>050-054>055-011600-
EASTERN WEST VIRGINIA PANHANDLE

CITY           SKY/WX    TMP DP  RH WIND       PRES   REMARKS
MARTINSBURG    CLOUDY    54  52  93 SE6       30.04F
PETERSBURG*    FAIR      65  57  76 S8        30.00S

$$

VAZ036>039-050-011600-
CENTRAL FOOTHILLS

CITY           SKY/WX    TMP DP  RH WIND       PRES   REMARKS
CHARLOTTESVILL CLOUDY    56  53  90 S8        30.07F
CULPEPER*      LGT RAIN  55  54  99 S3        30.08F
ORANGE*        LGT RAIN  54  54 100 SW5       30.10S
GORDONSVILLE*  CLOUDY    54  53  99 S5        30.08F
WARRENTON*     LGT RAIN  55  50  83 SE6       30.07F

$$

VAZ055>057-011600-
NORTH AND CENTRAL PIEDMONT

CITY           SKY/WX    TMP DP  RH WIND       PRES   REMARKS
FREDERICKSBRG* HVY RAIN  54  54 100 SE5       30.09F
STAFFORD*      RAIN      53  51  95 CALM      30.14F

$$

NCZ024-NYZ072-PAZ021-071-VAZ022-071-011600-
OTHER REGIONAL OBSERVATIONS

CITY           SKY/WX    TMP DP  RH WIND       PRES   REMARKS
NEW YORK CITY  LGT RAIN  48  44  86 VRB6      30.23F
PHILADELPHIA   LGT RAIN  48  44  86 E8        30.18F
PITTSBURGH     CLOUDY    63  59  87 SW9       29.95R
ROANOKE        CLOUDY    58  56  93 VRB3      30.09S
RICHMOND       CLOUDY    56  54  93 SE10      30.08F
RALEIGH        LGT RAIN  65  63  93 S13       30.11R FOG

$$

ANZ530>537-011600-
MARINE OBSERVATIONS

STATION/POSITION TIME  TEMP    WIND        PRES
                       AIR SEA DIR/SP/G
                 (UTC) (F)     (DEG/KT/KT) (MB)
THOMAS PT LIGHT  1500   51 57  130/ 12/ 13 1021.0F
BALT KEY BRIDGE  1400   51     130/ 10/ 12 1020.4R
COVE POINT       1400   52     170/ 13/ 14 1020.7F
LEWISETTA        1400   54 59  120/  4/  5 1019.8F
SOLOMONS ISLAND  1400   53 58  120/ 10/ 11   N/A
PINEY POINT      1400          160/ 13/ 14   N/A

$$





USA.gov is the U.S. government's official web portal to all federal, state and local government web resources and services.